Regional Weather Roundup
Issued by NWS

Home | Current Version | Previous Version | Graphics & Text | Print | Product List | Glossary On
Versions: 1 2 3 4 5 6 7 8 9 10 11 12 13 14 15 16 17 18 19 20 21 22 23 24 25 26 27 28 29 30 31 32 33 34 35 36 37 38 39 40 41 42 43 44 45 46 47 48 49 50
390
ASUS43 KFSD 230702
RWRSD

WEATHER ROUNDUP FOR SOUTH DAKOTA
NATIONAL WEATHER SERVICE SIOUX FALLS SD
200 AM CDT MON APR 23 2018

NOTE: "FAIR" INDICATES FEW OR NO CLOUDS BELOW 12,000 FEET WITH NO
SIGNIFICANT WEATHER AND/OR OBSTRUCTIONS TO VISIBILITY.


SDZ001>005-009-010-012>017-230800-
NORTHWEST AND NORTH CENTRAL SOUTH DAKOTA

CITY           SKY/WX    TMP DP  RH WIND       PRES   REMARKS
BUFFALO          N/A     46  34  62 NE9       30.03S
FAITH            N/A     45  39  79 SE12      30.10S
MOBRIDGE       CLEAR     43  35  73 SE6       30.11R
$$

SDZ012>016-024>037-041>051-057-063-072>074-230800-
SOUTHWEST AND SOUTH CENTRAL SOUTH DAKOTA

CITY           SKY/WX    TMP DP  RH WIND       PRES   REMARKS
RAPID CTY ARPT CLEAR     43  37  79 E5        30.09S
PIERRE         CLEAR     43  37  79 SE6       30.14R
CUSTER         CLEAR     36  29  75 NW3       30.14R
ELLSWORTH AFB  CLEAR    N/A N/A N/A S6        30.09F
PHILIP         CLEAR     47  37  68 CALM      30.12S
PINE RIDGE     CLEAR     47  37  68 S18G25    30.12S
SPEARFISH      FAIR      50  36  57 E7        30.08S
WINNER         FAIR      45  35  68 S5        30.16S
$$

SDZ004>011-016>023-039-040-230800-
NORTHEAST SOUTH DAKOTA

CITY           SKY/WX    TMP DP  RH WIND       PRES   REMARKS
ABERDEEN       CLEAR     38  35  89 S8        30.18S
WATERTOWN      CLEAR     41  36  82 S8        30.19S
BROOKINGS      CLEAR     39  35  86 SE3       30.21S
SISSETON         N/A     40  35  83 S8        30.19S
$$

SDZ017-020-022-023-036>040-048>070-230800-
SOUTHEAST SOUTH DAKOTA

CITY           SKY/WX    TMP DP  RH WIND       PRES   REMARKS
SIOUX FALLS    CLEAR     41  34  76 E6        30.20F
HURON          CLEAR     43  37  79 SE7       30.18
CHAMBERLAIN    CLEAR     43  40  88 SE3       30.17S
MITCHELL       CLEAR     43  39  86 SE7       30.19S
YANKTON        CLEAR     44  40  85 E5        30.20S
$$

ABBREVIATIONS USED IN REMARKS
   TC - TEMPERATURE IN CELSIUS
  WCI - WIND CHILL INDEX
   HX - HEAT INDEX
  VSB - VISIBILITY





USA.gov is the U.S. government's official web portal to all federal, state and local government web resources and services.